Installed distributed generation trends

From www.emi.ea.govt.nz provided by the Electricity Authority (New Zealand)
Run at: 20240519083118

Parameters
Date range,01 Sep 2013 - 31 Mar 2024
Region type,New Zealand
Market segment,All ICPs
Capacity,All combined
Fuel type,All combined

Month end,Region ID,Region name,Capacity,Fuel type,ICP count,ICP uptake rate (%),Total capacity installed (MW),Avg. capacity installed (kW),ICP count - new installations,Avg. capacity - new installations (kW)
31/08/2013,NZ,New Zealand,All combined,All combined,1822,0.09055,1273.063,698.718,666,443.608
30/09/2013,NZ,New Zealand,All combined,All combined,2071,0.10296,1279.915,618.018,238,24.232
31/10/2013,NZ,New Zealand,All combined,All combined,2252,0.11195,1279.685,568.244,182,4.725
30/11/2013,NZ,New Zealand,All combined,All combined,2491,0.12374,1277.529,512.858,247,5.238
31/12/2013,NZ,New Zealand,All combined,All combined,2668,0.13241,1278.251,479.105,184,4.795
31/01/2014,NZ,New Zealand,All combined,All combined,2848,0.14122,1278.981,449.080,180,3.629
28/02/2014,NZ,New Zealand,All combined,All combined,3126,0.15499,1279.904,409.438,282,3.591
31/03/2014,NZ,New Zealand,All combined,All combined,3374,0.16716,1281.693,379.873,253,7.718
30/04/2014,NZ,New Zealand,All combined,All combined,3576,0.17700,1342.541,375.431,208,294.699
31/05/2014,NZ,New Zealand,All combined,All combined,3821,0.18895,1343.437,351.593,244,3.949
30/06/2014,NZ,New Zealand,All combined,All combined,4119,0.20351,1350.579,327.890,300,3.839
31/07/2014,NZ,New Zealand,All combined,All combined,4431,0.21877,1351.743,305.065,320,3.652
31/08/2014,NZ,New Zealand,All combined,All combined,4671,0.23036,1350.031,289.024,244,34.762
30/09/2014,NZ,New Zealand,All combined,All combined,4945,0.24360,1351.091,273.224,277,3.834
31/10/2014,NZ,New Zealand,All combined,All combined,5259,0.25882,1349.388,256.586,322,14.023
30/11/2014,NZ,New Zealand,All combined,All combined,5600,0.27534,1353.088,241.623,342,10.946
31/12/2014,NZ,New Zealand,All combined,All combined,5908,0.29009,1354.488,229.263,308,4.458
31/01/2015,NZ,New Zealand,All combined,All combined,6160,0.30227,1353.738,219.763,254,4.107
28/02/2015,NZ,New Zealand,All combined,All combined,6404,0.31400,1387.088,216.597,251,132.994
31/03/2015,NZ,New Zealand,All combined,All combined,6684,0.32747,1388.247,207.697,282,3.768
30/04/2015,NZ,New Zealand,All combined,All combined,6945,0.33991,1386.821,199.686,275,3.539
31/05/2015,NZ,New Zealand,All combined,All combined,7216,0.35283,1389.376,192.541,275,5.141
30/06/2015,NZ,New Zealand,All combined,All combined,7577,0.37017,1390.785,183.554,361,4.028
31/07/2015,NZ,New Zealand,All combined,All combined,8000,0.39051,1392.320,174.040,426,3.773
31/08/2015,NZ,New Zealand,All combined,All combined,8329,0.40619,1403.184,168.470,329,14.767
30/09/2015,NZ,New Zealand,All combined,All combined,8746,0.42608,1400.881,160.174,415,4.249
31/10/2015,NZ,New Zealand,All combined,All combined,9096,0.44263,1401.341,154.061,349,3.876
30/11/2015,NZ,New Zealand,All combined,All combined,9477,0.46078,1402.332,147.972,385,3.762
31/12/2015,NZ,New Zealand,All combined,All combined,9901,0.48076,1404.944,141.899,429,8.117
31/01/2016,NZ,New Zealand,All combined,All combined,10149,0.49259,1406.400,138.575,267,5.481
29/02/2016,NZ,New Zealand,All combined,All combined,10481,0.50827,1402.379,133.802,354,4.610
31/03/2016,NZ,New Zealand,All combined,All combined,10819,0.52452,1405.552,129.915,345,8.701
30/04/2016,NZ,New Zealand,All combined,All combined,11174,0.54114,1409.685,126.158,356,11.268
31/05/2016,NZ,New Zealand,All combined,All combined,11550,0.55877,1408.906,121.983,380,7.780
30/06/2016,NZ,New Zealand,All combined,All combined,11940,0.57729,1413.558,118.388,393,7.332
31/07/2016,NZ,New Zealand,All combined,All combined,12299,0.59399,1418.133,115.305,373,13.247
31/08/2016,NZ,New Zealand,All combined,All combined,12704,0.61300,1422.257,111.953,407,7.337
30/09/2016,NZ,New Zealand,All combined,All combined,13092,0.63092,1424.235,108.787,410,5.881
31/10/2016,NZ,New Zealand,All combined,All combined,13441,0.64708,1424.513,105.983,350,5.046
30/11/2016,NZ,New Zealand,All combined,All combined,13834,0.66530,1426.273,103.099,394,4.420
31/12/2016,NZ,New Zealand,All combined,All combined,14198,0.68169,1436.594,101.183,366,28.121
31/01/2017,NZ,New Zealand,All combined,All combined,14461,0.69412,1497.242,103.537,267,226.504
28/02/2017,NZ,New Zealand,All combined,All combined,14778,0.70844,1496.647,101.275,321,7.587
31/03/2017,NZ,New Zealand,All combined,All combined,15155,0.72578,1496.435,98.742,361,6.036
30/04/2017,NZ,New Zealand,All combined,All combined,15510,0.74223,1498.014,96.584,363,6.563
31/05/2017,NZ,New Zealand,All combined,All combined,15878,0.75913,1499.215,94.421,376,3.568
30/06/2017,NZ,New Zealand,All combined,All combined,16333,0.78007,1501.244,91.915,462,6.667
31/07/2017,NZ,New Zealand,All combined,All combined,16748,0.79913,1504.928,89.857,422,8.588
31/08/2017,NZ,New Zealand,All combined,All combined,17257,0.82266,1506.177,87.279,522,8.665
30/09/2017,NZ,New Zealand,All combined,All combined,17671,0.84133,1508.275,85.353,420,5.336
31/10/2017,NZ,New Zealand,All combined,All combined,18032,0.85749,1511.245,83.809,374,9.300
30/11/2017,NZ,New Zealand,All combined,All combined,18509,0.87894,1511.541,81.665,480,4.069
31/12/2017,NZ,New Zealand,All combined,All combined,18876,0.89504,1513.093,80.160,377,5.236
31/01/2018,NZ,New Zealand,All combined,All combined,19170,0.90884,1514.391,78.998,305,4.297
28/02/2018,NZ,New Zealand,All combined,All combined,19538,0.92530,1516.289,77.607,373,3.911
31/03/2018,NZ,New Zealand,All combined,All combined,19977,0.94499,1545.303,77.354,426,69.795
30/04/2018,NZ,New Zealand,All combined,All combined,20311,0.95985,1546.817,76.157,335,4.472
31/05/2018,NZ,New Zealand,All combined,All combined,20673,0.97575,1553.124,75.128,365,17.291
30/06/2018,NZ,New Zealand,All combined,All combined,20973,0.98883,1555.265,74.156,298,6.868
31/07/2018,NZ,New Zealand,All combined,All combined,21350,1.00539,1557.215,72.937,387,5.054
31/08/2018,NZ,New Zealand,All combined,All combined,21779,1.02440,1560.460,71.650,437,8.363
30/09/2018,NZ,New Zealand,All combined,All combined,22245,1.04535,1562.897,70.258,457,5.228
31/10/2018,NZ,New Zealand,All combined,All combined,22699,1.06576,1567.235,69.044,458,9.407
30/11/2018,NZ,New Zealand,All combined,All combined,23143,1.08517,1572.321,67.939,464,6.377
31/12/2018,NZ,New Zealand,All combined,All combined,23541,1.10232,1576.528,66.969,414,15.076
31/01/2019,NZ,New Zealand,All combined,All combined,23864,1.11719,1579.799,66.200,320,9.800
28/02/2019,NZ,New Zealand,All combined,All combined,24220,1.13274,1590.481,65.668,361,29.158
31/03/2019,NZ,New Zealand,All combined,All combined,24632,1.15039,1591.842,64.625,430,5.328
30/04/2019,NZ,New Zealand,All combined,All combined,24986,1.16579,1595.350,63.850,359,8.125
31/05/2019,NZ,New Zealand,All combined,All combined,25417,1.18459,1599.311,62.923,438,8.684
30/06/2019,NZ,New Zealand,All combined,All combined,25726,1.19765,1609.090,62.547,317,30.525
31/07/2019,NZ,New Zealand,All combined,All combined,26057,1.21177,1612.390,61.879,355,9.098
31/08/2019,NZ,New Zealand,All combined,All combined,26427,1.22739,1612.109,61.002,380,5.249
30/09/2019,NZ,New Zealand,All combined,All combined,26772,1.24194,1615.605,60.347,356,8.343
31/10/2019,NZ,New Zealand,All combined,All combined,27183,1.25973,1617.945,59.520,427,5.306
30/11/2019,NZ,New Zealand,All combined,All combined,27552,1.27478,1620.626,58.821,381,7.507
31/12/2019,NZ,New Zealand,All combined,All combined,27879,1.28789,1626.923,58.357,327,19.072
31/01/2020,NZ,New Zealand,All combined,All combined,28205,1.30270,1631.440,57.842,344,12.994
29/02/2020,NZ,New Zealand,All combined,All combined,28552,1.31733,1633.645,57.216,367,5.832
31/03/2020,NZ,New Zealand,All combined,All combined,28832,1.32815,1635.193,56.715,282,6.124
30/04/2020,NZ,New Zealand,All combined,All combined,28915,1.33167,1638.109,56.653,87,6.973
31/05/2020,NZ,New Zealand,All combined,All combined,29297,1.34693,1641.304,56.023,395,5.544
30/06/2020,NZ,New Zealand,All combined,All combined,29707,1.36491,1640.035,55.207,420,6.249
31/07/2020,NZ,New Zealand,All combined,All combined,30112,1.38138,1644.246,54.604,423,10.967
31/08/2020,NZ,New Zealand,All combined,All combined,30552,1.39945,1647.599,53.928,443,9.148
30/09/2020,NZ,New Zealand,All combined,All combined,31015,1.41885,1660.732,53.546,477,28.291
31/10/2020,NZ,New Zealand,All combined,All combined,31504,1.43914,1664.635,52.839,503,7.089
30/11/2020,NZ,New Zealand,All combined,All combined,32020,1.46034,1699.605,53.079,533,74.546
31/12/2020,NZ,New Zealand,All combined,All combined,32498,1.47962,1702.855,52.399,486,6.699
31/01/2021,NZ,New Zealand,All combined,All combined,32819,1.49379,1706.421,51.995,327,12.040
28/02/2021,NZ,New Zealand,All combined,All combined,33219,1.51008,1709.349,51.457,416,7.284
31/03/2021,NZ,New Zealand,All combined,All combined,33763,1.53279,1714.487,50.780,555,7.853
30/04/2021,NZ,New Zealand,All combined,All combined,34275,1.55382,1718.126,50.128,534,8.379
31/05/2021,NZ,New Zealand,All combined,All combined,34824,1.57623,1723.128,49.481,567,8.286
30/06/2021,NZ,New Zealand,All combined,All combined,35417,1.60118,1739.220,49.107,602,26.682
31/07/2021,NZ,New Zealand,All combined,All combined,36089,1.62947,1746.550,48.396,672,10.134
31/08/2021,NZ,New Zealand,All combined,All combined,36521,1.64745,1749.485,47.904,435,5.726
30/09/2021,NZ,New Zealand,All combined,All combined,37053,1.66920,1753.114,47.314,540,6.562
31/10/2021,NZ,New Zealand,All combined,All combined,37722,1.69669,1756.087,46.553,676,6.095
30/11/2021,NZ,New Zealand,All combined,All combined,38641,1.73557,1762.348,45.608,930,6.601
31/12/2021,NZ,New Zealand,All combined,All combined,39336,1.76428,1769.266,44.978,706,7.897
31/01/2022,NZ,New Zealand,All combined,All combined,39958,1.79249,1774.270,44.403,637,7.572
28/02/2022,NZ,New Zealand,All combined,All combined,40700,1.82379,1780.296,43.742,753,7.570
31/03/2022,NZ,New Zealand,All combined,All combined,41589,1.86147,1787.678,42.984,901,14.177
30/04/2022,NZ,New Zealand,All combined,All combined,42322,1.89186,1790.914,42.316,746,7.396
31/05/2022,NZ,New Zealand,All combined,All combined,43225,1.92927,1798.246,41.602,915,7.981
30/06/2022,NZ,New Zealand,All combined,All combined,43954,1.95927,1804.443,41.053,735,8.290
31/07/2022,NZ,New Zealand,All combined,All combined,44722,1.99080,1815.253,40.590,784,7.462
31/08/2022,NZ,New Zealand,All combined,All combined,45749,2.03377,1826.128,39.916,1039,10.368
30/09/2022,NZ,New Zealand,All combined,All combined,46646,2.07022,1837.782,39.398,897,9.728
31/10/2022,NZ,New Zealand,All combined,All combined,47541,2.10697,1843.609,38.779,920,7.195
30/11/2022,NZ,New Zealand,All combined,All combined,48639,2.15316,1851.122,38.058,1105,6.789
31/12/2022,NZ,New Zealand,All combined,All combined,49533,2.18880,1857.821,37.507,911,7.374
31/01/2023,NZ,New Zealand,All combined,All combined,50132,2.21465,1862.012,37.142,616,6.827
28/02/2023,NZ,New Zealand,All combined,All combined,50962,2.24720,1866.720,36.630,864,7.755
31/03/2023,NZ,New Zealand,All combined,All combined,52026,2.29131,1877.600,36.090,1074,9.641
30/04/2023,NZ,New Zealand,All combined,All combined,52865,2.32630,1884.452,35.646,853,7.649
31/05/2023,NZ,New Zealand,All combined,All combined,53832,2.36547,1865.275,34.650,991,8.072
30/06/2023,NZ,New Zealand,All combined,All combined,54771,2.40387,1838.771,33.572,953,9.579
31/07/2023,NZ,New Zealand,All combined,All combined,55590,2.43665,1795.137,32.292,835,7.669
31/08/2023,NZ,New Zealand,All combined,All combined,56639,2.47910,1846.811,32.607,1062,48.752
30/09/2023,NZ,New Zealand,All combined,All combined,57697,2.52212,1853.782,32.130,1065,6.140
31/10/2023,NZ,New Zealand,All combined,All combined,58749,2.56523,1863.906,31.727,1070,9.405
30/11/2023,NZ,New Zealand,All combined,All combined,59991,2.61671,1902.752,31.717,1254,31.051
31/12/2023,NZ,New Zealand,All combined,All combined,60876,2.65136,1909.330,31.364,895,7.408
31/01/2024,NZ,New Zealand,All combined,All combined,61536,2.68034,1914.732,31.116,684,7.862
29/02/2024,NZ,New Zealand,All combined,All combined,62509,2.71937,1945.974,31.131,981,31.443
31/03/2024,NZ,New Zealand,All combined,All combined,63435,2.75643,1952.931,30.786,953,7.676
